Miscellaneous Local Product
Issued by NWS North Platte, NE

Home | Current Version | Previous Version | Text Only | Print | Product List | Glossary On
Versions: 1 2 3 4 5 6 7 8 9 10 11 12 13 14 15 16 17 18 19 20 21 22 23 24 25 26 27 28 29 30 31 32 33 34 35 36 37 38 39 40 41 42 43 44 45 46 47 48 49 50
000
AXUS43 KLBF 012010
MISLBF


WESTERN AND NORTH CENTRAL NEBRASKA HOURLY WEATHER ROUNDUP
NATIONAL WEATHER SERVICE NORTH PLATTE NE
300 PM CDT TUE SEP 01 2015

NOTE: "FAIR" INDICATES FEW OR NO CLOUDS BELOW 12,000 FEET WITH NO
SIGNIFICANT WEATHER AND/OR OBSTRUCTIONS TO VISIBILITY.

NOTE: STATIONS NOT REPORTING VARIABLES SUCH AS SKY/WEATHER OR
PRESSURE ARE PROVIDED BY THE NEBRASKA DEPARTMENT OF
ROADS...RAWS...AND APRS NETWORKS...AND ARE NOT UNDER
NATIONAL WEATHER SERVICE QUALITY CONTROL.

...OBSERVATIONS IN AND NEAR THE EASTERN PANHANDLE OF NEBRASKA...

CITY           SKY/WX    TMP DP  RH WIND       PRES   REMARKS
PINE RIDGE     SUNNY     92  40  16 W8G17     29.88S
CHADRON        SUNNY     94  41  16 NW8G20    29.87F HX  90
ALLIANCE       SUNNY     91  40  16 VRB3      29.93F
SIDNEY         SUNNY     92  35  13 SW9       29.99F
CRESCENT LAKE    N/A     93  43  17 SW7         N/A
BIG SPRINGS      N/A     92  54  27 CALM        N/A  HX  90
$$

...OBSERVATIONS IN NORTH CENTRAL NEBRASKA...

CITY           SKY/WX    TMP DP  RH WIND       PRES   REMARKS
VALENTINE      SUNNY     93  56  28 S15       29.86F HX  91
THEDFORD       MOSUNNY   91  59  34 S8G18     29.91S HX  90
AINSWORTH      SUNNY     87  61  41 SE15      29.90S
O`NEILL        MOSUNNY   82  70  67 CALM      29.90S
ORD            MOSUNNY   90  62  39 VRB7      29.87F HX  90
BROKEN BOW     MOSUNNY   88  62  41 VRB3      29.90F
SPRINGVIEW       N/A     86  66  51 SE5         N/A
SARGENT          N/A     86  61  42 CALM        N/A
CHAMBERS         N/A     86  69  56 CALM        N/A  HX  90
EWING            N/A     86  69  57 S5          N/A  HX  90
$$

...OBSERVATIONS IN SOUTHWEST NEBRASKA AND FAR NORTHEAST COLORADO...

CITY           SKY/WX    TMP DP  RH WIND       PRES   REMARKS
WRAY           CLOUDY    94  46  19 SW3       29.98F HX  90
HOLYOKE        FAIR      91  52  25 S5        29.97F
IMPERIAL       SUNNY     91  51  25 VRB5      29.95F
OGALLALA       SUNNY     90  53  28 SW5       29.93F
NORTH PLATTE   SUNNY     89  56  32 VRB3      29.90F
MCCOOK         SUNNY     90  58  33 S8        29.92S
LEXINGTON      SUNNY     90  57  32 NW3       29.91F
PAXTON           N/A     86  63  45 SW6         N/A
BRADY            N/A     88  61  40 CALM        N/A
CALLAWAY         N/A     90  72  54 CALM        N/A  HX  96
$$

...OBSERVATIONS IN CENTRAL LINCOLN COUNTY AREA...

CITY           SKY/WX    TMP DP  RH WIND       PRES   REMARKS
N.P. AIRPORT   SUNNY     89  56  32 VRB3      29.90F
N.P. DOWNTOWN    N/A     89  63  41 CALM        N/A
N.P. SOUTHEAST   N/A     91  60  35 CALM        N/A  HX  90
N.P. HILLCREST   N/A     87  60  40 W5          N/A
$$

...SOME OBSERVATIONS FROM AROUND THE REGION...

CITY           SKY/WX    TMP DP  RH WIND       PRES   REMARKS
DENVER         MOSUNNY   87  36  16 VRB3      30.07F
LARAMIE        PTSUNNY   78  34  20 N13       30.19F
CHEYENNE       MOSUNNY   84  37  18 NW13      30.11F
SCOTTSBLUFF    SUNNY     92  40  16 W5        29.94F
RAPID CITY     SUNNY     84  59  42 E7        29.86S
PIERRE         SUNNY     91  60  35 S18       29.77S HX  90
WINNER         FAIR      91  55  29 S17G28    29.83F
SIOUX FALLS    CLOUDY    79  70  74 SE13      29.88S
OMAHA          PTSUNNY   88  69  53 S16       29.92F HX  92
GRAND ISLAND   MOSUNNY   89  63  41 SW14      29.91F HX  90
KANSAS CITY    PTSUNNY   90  67  46 S12       30.01S HX  93
WICHITA        MOSUNNY   94  60  32 S15G25    29.96F HX  94
HAYS           SUNNY     97  57  26 S15G24    29.91S HX  95
LIBERAL        MOSUNNY   93  57  29 S18G26    29.99S HX  92
GOODLAND       MOSUNNY   89  53  29 VRB5      29.99S
$$



USA.gov is the U.S. government's official web portal to all federal, state and local government web resources and services.